Location: Quedlinburg
(51.7921°N, 11.1414°E)
Time: 13:21:42
(UTC+02:00)

RS-15 - Pass Details

Date: 18 March 2026
Orbit: 1893 x 2152 km, 64.8° (Epoch: 22 April)

Event Time Altitude Azimuth Distance (km) Brightness Sun altitude
Rises 04:22:13 0° 318° (NW) 5,386 10.2 -19.0°
Reaches altitude 10° 04:25:27 10° 317° (NW) 4,414 9.7 -18.6°
Maximum altitude 04:36:51 76° 235° (SW) 2,099 8.0 -16.9°
Drops below altitude 10° 04:48:48 10° 152° (SSE) 4,602 10.1 -15.2°
Sets 04:52:15 0° 151° (SSE) 5,624 10.6 -14.7°
